This is the latest recevied weather packets stored in our database for station/object HP1CDW-11. If no packets are shown the sender has not sent any weather packets the latest 10 day(s).
| Time | Temp. | Humidity | Pressure | Rain* | Wind** | Luminosity | Snow |
|---|---|---|---|---|---|---|---|
| 1777485468 | 32.22° C | 33% | 1007.5 hPa | - | - | - | - |
| 1777484868 | 32.22° C | 35% | 1007.8 hPa | - | - | - | - |
| 1777484267 | 32.78° C | 36% | 1008 hPa | - | - | - | - |
| 1777483667 | 32.78° C | 37% | 1008 hPa | - | - | - | - |
| 1777483066 | 32.78° C | 36% | 1008 hPa | - | - | - | - |
| 1777482466 | 33.33° C | 35% | 1008.1 hPa | - | - | - | - |
| 1777481866 | 33.33° C | 39% | 1008.2 hPa | - | - | - | - |
| 1777481266 | 32.78° C | 39% | 1008.3 hPa | - | - | - | - |
| 1777480665 | 32.78° C | 39% | 1008.3 hPa | - | - | - | - |
| 1777480065 | 32.78° C | 38% | 1008.5 hPa | - | - | - | - |
| 1777479464 | 32.78° C | 38% | 1008.6 hPa | - | - | - | - |
| 1777478864 | 32.22° C | 37% | 1008.7 hPa | - | - | - | - |
| 1777478264 | 32.78° C | 38% | 1008.7 hPa | - | - | - | - |
| 1777477663 | 32.78° C | 39% | 1008.8 hPa | - | - | - | - |
| 1777477063 | 32.78° C | 39% | 1008.9 hPa | - | - | - | - |
| 1777476463 | 32.78° C | 41% | 1009 hPa | - | - | - | - |
| 1777475862 | 32.78° C | 45% | 1009.1 hPa | - | - | - | - |
| 1777475262 | 32.22° C | 44% | 1009.2 hPa | - | - | - | - |
| 1777474662 | 32.22° C | 44% | 1009.2 hPa | - | - | - | - |
| 1777474062 | 32.22° C | 46% | 1009.3 hPa | - | - | - | - |
| 1777473461 | 32.22° C | 45% | 1009.4 hPa | - | - | - | - |
| 1777472861 | 32.22° C | 48% | 1009.5 hPa | - | - | - | - |
| 1777472261 | 32.22° C | 48% | 1009.4 hPa | - | - | - | - |
| 1777471660 | 32.22° C | 55% | 1009.4 hPa | - | - | - | - |
| 1777471060 | 32.22° C | 55% | 1009.4 hPa | - | - | - | - |
* Rain since midnight (hover to see other rain measurements)
** Current wind speed in m/s (hover to see current wind gust speed)